COSMOS 2251 DEB, 34468

Orbit data source: Space-Track

COSMOS 2251 DEB, 34468 is space debris in LEO originally from a launch on Wed, 16 Jun 1993 UTC launched from the Plesetsk Missile And Space Complex (PKMTR). The debris from Iridium 33, an American commercial communications satellite, has been tracked extensively since its accidental collision with the defunct Russian satellite Cosmos 2251 in 2009. This event, occurring at high speed in low Earth orbit (LEO), generated thousands of pieces of space debris, significantly increasing the risk of further collisions. The Iridium 33 debris cloud has impacted space traffic management and orbital debris mitigation strategies, making it a subject of ongoing study in space situational awareness.

Loading next visibility...
Identifier
34468, 1993-036TM
Orbit
LEO
Country
Flag of CISCIS
Related business
Manufacturer
Unknown
Mission
Spacecraft
Bus & Motor
Unknown
Mass
Unknown
Launch date (UTC)
1993-06-16 (33 years ago)
Launch vehicle
Unknown
Launch site
Plesetsk Missile And Space Complex (PKMTR)
Object type
Payload
Rocket body
Debris
Shape & HBR
Unknown shape, 0.1 m
Radar Cross Section
Medium (>0.1 m² and <1 m²)

Expand to show TLE details & history
Last TLE update: 18 hours ago

TLE from 18 hours ago
0 COSMOS 2251 DEB
1 34468U 93036TM  26207.02758205  .00000837  00000-0  22477-3 0  9995
2 34468  74.0116  54.9600 0074672 145.5125 215.0913 14.48049221917226
Epoch: 2026-07-26T00:39Z
TLE epoch observation values (Epoch: 2026-07-26T00:39:43.089Z)
Latitude
-0.00002°
Longitude
101.29905°
Altitude
778.232 km
Speed
7.442 km/s
True Right ascension
03h 39m 50s
True Declination
0° 00' 00"
Sunlit
Object was in daylight at epoch
Visualization orbit readout
Latitude
Unknown
Longitude
Unknown
Altitude
Unknown
Speed
Unknown
Apparent Right ascension
Unknown
Apparent Declination
Unknown
Sunlit
N/A
Visualization observer readout
Local Sidereal Time
07:55:26
Azimuth
Unknown
Elevation
Unknown
Doppler factor
Unknown
Orbital elements
Apogee altitude
782.715 km
Perigee altitude
676.565 km
Semi-major axis
7,107.777 km
Eccentricity
0.00747
Inclination
74.0116°
RAAN
54.96°
Arg. of periapsis
145.5125°
True anomaly
214.60312°
Mean anomaly
215.0913°
Eccentric anomaly
214.84684°
Mean motion
3.62195 °/min
Orbital period
99.39 mins
BSTAR
0.00022477

Documentation

Showing up to 5 results
|